Simultaneous Nadir Overpasses (SNOs) Predictions

Prediction of SNOs between GOES-15 and TERRA Satellite Orbit:

Table of predicted SNOs for the next 14.0 days since TLE Epoch: 1/4/2025
Index Date Time (GOES-15) GOES-15 Lat,Lon TERRA Lat,Lon Distance(km) Time Diff (sec)
1 01/05/2025 17:18:37 0.04, 61.43 0.48, 63.44 228.96 80
2 01/06/2025 05:38:13 -0.03, 61.40 0.52, 58.67 310.40 80
3 01/08/2025 05:22:23 -0.04, 61.41 -0.37, 63.13 195.39 80
4 01/08/2025 17:42:10 0.03, 61.43 -0.60, 58.31 354.21 80
5 01/10/2025 17:20:58 0.04, 61.46 0.29, 62.79 150.29 80
6 01/11/2025 05:40:35 -0.03, 61.45 0.69, 58.01 390.83 80
7 01/13/2025 05:24:43 -0.03, 61.47 -0.24, 62.48 114.26 80
8 01/13/2025 17:44:30 0.03, 61.49 -0.76, 57.67 433.93 80
9 01/15/2025 17:23:17 0.03, 61.52 0.16, 62.14 70.91 80
10 01/16/2025 05:42:53 -0.03, 61.52 0.86, 57.38 471.56 80
